Other Public Products
Issued by NWS Charleston, SC

Current Version | Previous Version | Text Only | Print | Product List | Glossary Off
Versions: 1 2 3 4 5 6 7 8 9 10 11 12 13 14 15 16 17 18 19 20 21 22 23 24 25 26 27 28 29 30 31 32 33 34 35 36 37 38 39 40 41 42 43 44 45 46 47 48 49 50

000
FPUS82 KCHS 231912
OPUCHS

TEST...KCHS/KSAV Gateway Observations...TEST
National Weather Service Charleston SC
200 PM EST FRI FEB 23 2018

NOTE: "fair" indicates few or no clouds below 12,000 feet with no
significant weather and/or obstructions to visibility.

SCZ050-WAZ558-NCZ071-TXZ119-213-PAZ071-DCZ001-FLZ074-172-MI076-
NYZ176-178-MAZ016-IL014-TNZ027-NJZ106-GAZ044-MD014-232000-

...Gateway Observations for Charleston International...

CITY           SKY/WX    TMP DP  RH WIND       PRES   REMARKS
Chas Airport   FAIR      79  61  53 S8        30.37F
Seattle        CLOUDY    32  20  61 S9        30.40S WCI  24
Charlotte      PTSUNNY   77  59  53 S8        30.37F
Dallas DFW     CLOUDY    47  44  90 N6        30.14F FOG
Dallas Love    CLOUDY    48  46  93 NE6       30.15F FOG
Philladelphia  DRIZZLE   43  41  93 E7        30.45F FOG
Wash National  CLOUDY    46  43  89 S7        30.43F
Baltimore      DRIZZLE   43  43 100 SE8       30.41F FOG
Miami          PTSUNNY   81  66  60 E15G24    30.28F
Detroit        CLOUDY    48  45  89 SW14      30.08F
Newark         DRIZZLE   40  37  89 E7        30.48F FOG     WCI  35
Laguardia      LGT RAIN  38  35  89 NE10      30.47F FOG     WCI  31
J F K          LGT RAIN  40  38  93 E10       30.48F FOG     WCI  33
Boston Logan   NOT AVBL
Ft. Lauderdale FAIR      80  67  64 E15       30.28F
Chicago O`Hare CLOUDY    40  35  83 W16G24    30.17R WCI  31
Chicago Midway CLOUDY    41  37  86 W15       30.18S
Houston Bush   FAIR      78  69  73 SE18G25   30.13F
Houston Hobby  PTSUNNY   79  70  74 S14G21    30.13F
Nashville      PTSUNNY   79  58  48 S13G21    30.26F
Atlanta        PTSUNNY   75  63  66 S6        30.35F

$$

GAZ044-118-TXZ119-213-NCZ071-DCZ001-MDZ014-506-PAZ021-071-NJZ106-
NYZ176-178-MAZ106-OHZ011-021-055-MIZ076-KYZ091-ILZ014-INZ047-
MNZ060-ONZ431-232000-

...Gateway Observations for Savannah International...

CITY           SKY/WX    TMP DP  RH WIND       PRES   REMARKS
Savannah Arpt  FAIR      82  60  47 SE9G17    30.36F
Atlanta        PTSUNNY   75  63  66 S6        30.35F
Charlotte      PTSUNNY   77  59  53 S8        30.37F
Dallas DFW     CLOUDY    47  44  90 N6        30.14F FOG
Houston Bush   FAIR      78  69  73 SE18G25   30.13F
Wash National  CLOUDY    46  43  89 S7        30.43F
Wash Dulles    CLOUDY    44  42  93 S6        30.42S FOG
Baltimore      DRIZZLE   43  43 100 SE8       30.41F FOG
Philadelphia   DRIZZLE   43  41  93 E7        30.45F FOG
Newark         DRIZZLE   40  37  89 E7        30.48F FOG     WCI  35
Laguardia      LGT RAIN  38  35  89 NE10      30.47F FOG     WCI  31
J F K          LGT RAIN  40  38  93 E10       30.48F FOG     WCI  33
Boston         NOT AVBL
Pittsburg      CLOUDY    62  58  86 SW15G23   30.17F
Akron          LGT RAIN  59  55  87 SW15G22   30.14S FOG
Cleveland      CLOUDY    60  57  89 SW16G26   30.13S
Cincinnati     LGT RAIN  62  61  96 SW9       30.21S FOG
Columbus       CLOUDY    63  60  91 W17G26    30.18F
Detroit        CLOUDY    48  45  89 SW14      30.08F
Chicago O`Hare CLOUDY    40  35  83 W16G24    30.17R WCI  31
Minneapolis    PTSUNNY   31  23  72 W9        30.19R WCI  23
Indianapolis   CLOUDY    53  50  89 SW15      30.22S
Toronto Canada LGT RAIN  37  36  93 CALM      30.05F FOG

$$




USA.gov is the U.S. government's official web portal to all federal, state and local government web resources and services.